| time (UTC) | temp F | wind direction | speed MPH | gust MPH | rain 1hr in | rain 24hr in | rain mn in | humidity % | barometer mb |
| 20260904011035 | 84 | 360 | 0.0 | 6.0 | 0.00 | 0.00 | 0.00 | 20 | 1009.9 |
| 20260904010615 | 85 | 360 | 1.0 | 7.0 | 0.00 | 0.00 | 0.00 | 20 | 1009.8 |
| 20260904005615 | 85 | 360 | 0.0 | 9.0 | 0.00 | 0.00 | 0.00 | 20 | 1009.8 |
| 20260904005034 | 85 | 360 | 0.0 | 9.0 | 0.00 | 0.00 | 0.00 | 20 | 1009.9 |
| 20260904004536 | 85 | 360 | 0.0 | 6.0 | 0.00 | 0.00 | 0.00 | 20 | 1009.9 |
| 20260904004038 | 85 | 360 | 1.0 | 11.0 | 0.00 | 0.00 | 0.00 | 22 | 1009.8 |
| 20260904003538 | 85 | 360 | 1.0 | 11.0 | 0.00 | 0.00 | 0.00 | 21 | 1009.8 |
| 20260904003038 | 85 | 360 | 0.0 | 11.0 | 0.00 | 0.00 | 0.00 | 21 | 1009.7 |
| 20260904002540 | 85 | 360 | 2.0 | 11.0 | 0.00 | 0.00 | 0.00 | 21 | 1009.8 |
| 20260904002025 | 85 | 360 | 2.0 | 9.0 | 0.00 | 0.00 | 0.00 | 21 | 1009.7 |
| 20260904001026 | 85 | 360 | 0.0 | 9.0 | 0.00 | 0.00 | 0.00 | 21 | 1009.8 |
| 20260904000526 | 85 | 360 | 2.0 | 11.0 | 0.00 | 0.00 | 0.00 | 20 | 1009.8 |
| 20260904000026 | 85 | 360 | 4.0 | 11.0 | 0.00 | 0.00 | 0.00 | 21 | 1009.8 |
| 20260903235548 | 85 | 360 | 3.0 | 13.0 | 0.00 | 0.00 | 0.00 | 20 | 1009.8 |
| 20260903235028 | 85 | 360 | 4.0 | 13.0 | 0.00 | 0.00 | 0.00 | 20 | 1009.8 |
| 20260903234550 | 86 | 360 | 0.0 | 0.0 | 0.00 | 0.00 | 0.00 | 20 | 1009.8 |
| 20260903234031 | 86 | 360 | 0.0 | 0.0 | 0.00 | 0.00 | 0.00 | 20 | 1009.7 |
| 20260903233612 | 86 | 360 | 0.0 | 9.0 | 0.00 | 0.00 | 0.00 | 20 | 1009.9 |
| 20260903233031 | 86 | 360 | 0.0 | 9.0 | 0.00 | 0.00 | 0.00 | 20 | 1010.0 |
| 20260903232531 | 85 | 360 | 0.0 | 11.0 | 0.00 | 0.00 | 0.00 | 20 | 1010.0 |
| 20260903232032 | 85 | 360 | 2.0 | 11.0 | 0.00 | 0.00 | 0.00 | 20 | 1010.0 |
| 20260903231533 | 85 | 360 | 1.0 | 10.0 | 0.00 | 0.00 | 0.00 | 20 | 1010.0 |
| 20260903231036 | 86 | 360 | 5.0 | 10.0 | 0.00 | 0.00 | 0.00 | 19 | 1010.0 |
| 20260903230537 | 86 | 360 | 1.0 | 11.0 | 0.00 | 0.00 | 0.00 | 20 | 1010.0 |
| 20260903230039 | 86 | 360 | 2.0 | 22.0 | 0.00 | 0.00 | 0.00 | 19 | 1010.1 |
| 20260903225621 | 86 | 360 | 12.0 | 22.0 | 0.00 | 0.00 | 0.00 | 20 | 1010.0 |
| 20260903225120 | 86 | 360 | 7.0 | 28.0 | 0.00 | 0.00 | 0.00 | 20 | 1010.2 |
| 20260903224620 | 86 | 360 | 6.0 | 28.0 | 0.00 | 0.00 | 0.00 | 20 | 1010.3 |
| 20260903224040 | 86 | 360 | 10.0 | 14.0 | 0.00 | 0.00 | 0.00 | 20 | 1010.3 |
| 20260903223541 | 85 | 360 | 2.0 | 13.0 | 0.00 | 0.00 | 0.00 | 20 | 1010.4 |
| 20260903223102 | 85 | 360 | 3.0 | 13.0 | 0.00 | 0.00 | 0.00 | 20 | 1010.5 |
| 20260903222602 | 84 | 360 | 5.0 | 22.0 | 0.00 | 0.00 | 0.00 | 21 | 1010.5 |
| 20260903222104 | 84 | 360 | 5.0 | 22.0 | 0.00 | 0.00 | 0.00 | 20 | 1010.6 |
| 20260903221524 | 85 | 360 | 5.0 | 15.0 | 0.00 | 0.00 | 0.00 | 21 | 1010.6 |
| 20260903221027 | 85 | 360 | 1.0 | 9.0 | 0.00 | 0.00 | 0.00 | 20 | 1010.7 |
| 20260903220532 | 85 | 360 | 5.0 | 10.0 | 0.00 | 0.00 | 0.00 | 21 | 1010.6 |
| 20260903220051 | 85 | 360 | 2.0 | 11.0 | 0.00 | 0.00 | 0.00 | 21 | 1010.7 |
| 20260903215608 | 85 | 360 | 3.0 | 11.0 | 0.00 | 0.00 | 0.00 | 20 | 1010.8 |
| 20260903215032 | 84 | 360 | 0.0 | 5.0 | 0.00 | 0.00 | 0.00 | 20 | 1010.8 |
| 20260903214610 | 84 | 360 | 0.0 | 17.0 | 0.00 | 0.00 | 0.00 | 21 | 1011.0 |
| 20260903214033 | 84 | 360 | 5.0 | 21.0 | 0.00 | 0.00 | 0.00 | 21 | 1011.0 |
| 20260903213555 | 84 | 360 | 5.0 | 21.0 | 0.00 | 0.00 | 0.00 | 20 | 1011.0 |
| 20260903213054 | 84 | 360 | 3.0 | 20.0 | 0.00 | 0.00 | 0.00 | 21 | 1010.9 |
| 20260903212611 | 84 | 360 | 5.0 | 24.0 | 0.00 | 0.00 | 0.00 | 21 | 1011.0 |
| 20260903212035 | 84 | 360 | 2.0 | 24.0 | 0.00 | 0.00 | 0.00 | 21 | 1011.1 |
| 20260903211556 | 84 | 360 | 3.0 | 27.0 | 0.00 | 0.00 | 0.00 | 20 | 1011.1 |
| 20260903211036 | 83 | 360 | 5.0 | 27.0 | 0.00 | 0.00 | 0.00 | 20 | 1011.1 |
| 20260903210559 | 84 | 360 | 11.0 | 22.0 | 0.00 | 0.00 | 0.00 | 20 | 1011.1 |
| 20260903210040 | 84 | 360 | 4.0 | 11.0 | 0.00 | 0.00 | 0.00 | 19 | 1011.1 |
| 20260903205540 | 84 | 360 | 0.0 | 16.0 | 0.00 | 0.00 | 0.00 | 21 | 1011.1 |
| 20260903205101 | 83 | 360 | 6.0 | 20.0 | 0.00 | 0.00 | 0.00 | 21 | 1011.3 |
| 20260903204542 | 84 | 360 | 8.0 | 20.0 | 0.00 | 0.00 | 0.00 | 21 | 1011.3 |
| 20260903204105 | 83 | 360 | 4.0 | 19.0 | 0.00 | 0.00 | 0.00 | 21 | 1011.4 |
| 20260903203625 | 84 | 360 | 5.0 | 20.0 | 0.00 | 0.00 | 0.00 | 20 | 1011.4 |
| 20260903203043 | 84 | 360 | 10.0 | 20.0 | 0.00 | 0.00 | 0.00 | 21 | 1011.3 |
| 20260903202545 | 83 | 360 | 0.0 | 11.0 | 0.00 | 0.00 | 0.00 | 21 | 1011.3 |
| 20260903202026 | 83 | 360 | 2.0 | 17.0 | 0.00 | 0.00 | 0.00 | 20 | 1011.4 |
| 20260903201527 | 83 | 360 | 8.0 | 18.0 | 0.00 | 0.00 | 0.00 | 20 | 1011.4 |
| 20260903201029 | 83 | 360 | 7.0 | 22.0 | 0.00 | 0.00 | 0.00 | 20 | 1011.4 |
| 20260903200551 | 83 | 360 | 7.0 | 22.0 | 0.00 | 0.00 | 0.00 | 20 | 1011.5 |
| 20260903200111 | 83 | 360 | 15.0 | 22.0 | 0.00 | 0.00 | 0.00 | 20 | 1011.4 |
| 20260903195550 | 83 | 360 | 6.0 | 18.0 | 0.00 | 0.00 | 0.00 | 20 | 1011.4 |
| 20260903195031 | 83 | 360 | 1.0 | 15.0 | 0.00 | 0.00 | 0.00 | 20 | 1011.5 |
| 20260903194531 | 83 | 360 | 4.0 | 13.0 | 0.00 | 0.00 | 0.00 | 20 | 1011.5 |
| 20260903194054 | 83 | 360 | 8.0 | 17.0 | 0.00 | 0.00 | 0.00 | 20 | 1011.6 |
| 20260903193554 | 83 | 360 | 4.0 | 23.0 | 0.00 | 0.00 | 0.00 | 21 | 1011.6 |
| 20260903193034 | 83 | 360 | 4.0 | 23.0 | 0.00 | 0.00 | 0.00 | 20 | 1011.6 |
| 20260903192535 | 83 | 360 | 5.0 | 19.0 | 0.00 | 0.00 | 0.00 | 20 | 1011.7 |
| 20260903192035 | 82 | 360 | 4.0 | 18.0 | 0.00 | 0.00 | 0.00 | 20 | 1011.7 |
| 20260903191540 | 83 | 360 | 10.0 | 19.0 | 0.00 | 0.00 | 0.00 | 20 | 1011.7 |
| 20260903191119 | 83 | 360 | 7.0 | 19.0 | 0.00 | 0.00 | 0.00 | 20 | 1011.7 |
| 20260903190557 | 83 | 360 | 0.0 | 20.0 | 0.00 | 0.00 | 0.00 | 21 | 1011.7 |
| 20260903190042 | 83 | 360 | 7.0 | 21.0 | 0.00 | 0.00 | 0.00 | 20 | 1011.8 |
| 20260903185542 | 82 | 360 | 10.0 | 21.0 | 0.00 | 0.00 | 0.00 | 20 | 1011.8 |
| 20260903185025 | 82 | 360 | 3.0 | 21.0 | 0.00 | 0.00 | 0.00 | 22 | 1011.8 |
| 20260903184526 | 83 | 360 | 3.0 | 21.0 | 0.00 | 0.00 | 0.00 | 21 | 1011.9 |
| 20260903184048 | 83 | 360 | 4.0 | 23.0 | 0.00 | 0.00 | 0.00 | 21 | 1011.9 |
| 20260903183527 | 83 | 360 | 3.0 | 23.0 | 0.00 | 0.00 | 0.00 | 22 | 1011.9 |
| 20260903183049 | 82 | 360 | 8.0 | 16.0 | 0.00 | 0.00 | 0.00 | 21 | 1012.0 |
| 20260903182529 | 82 | 360 | 0.0 | 15.0 | 0.00 | 0.00 | 0.00 | 22 | 1012.0 |
| 20260903182031 | 82 | 360 | 0.0 | 21.0 | 0.00 | 0.00 | 0.00 | 22 | 1011.9 |
| 20260903181549 | 82 | 360 | 7.0 | 21.0 | 0.00 | 0.00 | 0.00 | 21 | 1012.1 |
| 20260903181030 | 82 | 360 | 10.0 | 20.0 | 0.00 | 0.00 | 0.00 | 22 | 1012.0 |
| 20260903180611 | 82 | 360 | 6.0 | 20.0 | 0.00 | 0.00 | 0.00 | 21 | 1012.2 |
| 20260903180110 | 82 | 360 | 2.0 | 17.0 | 0.00 | 0.00 | 0.00 | 21 | 1012.2 |
| 20260903175550 | 82 | 360 | 0.0 | 26.0 | 0.00 | 0.00 | 0.00 | 21 | 1012.3 |
| 20260903175029 | 81 | 360 | 13.0 | 26.0 | 0.00 | 0.00 | 0.00 | 21 | 1012.4 |
| 20260903174531 | 81 | 360 | 2.0 | 23.0 | 0.00 | 0.00 | 0.00 | 22 | 1012.2 |
| 20260903174032 | 80 | 360 | 12.0 | 23.0 | 0.00 | 0.00 | 0.00 | 22 | 1012.4 |
| 20260903173532 | 81 | 360 | 3.0 | 18.0 | 0.00 | 0.00 | 0.00 | 21 | 1012.4 |
| 20260903173034 | 81 | 360 | 0.0 | 13.0 | 0.00 | 0.00 | 0.00 | 21 | 1012.4 |
| 20260903172556 | 81 | 360 | 1.0 | 17.0 | 0.00 | 0.00 | 0.00 | 22 | 1012.4 |
| 20260903172036 | 80 | 360 | 1.0 | 17.0 | 0.00 | 0.00 | 0.00 | 22 | 1012.5 |
| 20260903171542 | 80 | 360 | 4.0 | 14.0 | 0.00 | 0.00 | 0.00 | 22 | 1012.5 |
| 20260903171045 | 80 | 360 | 4.0 | 15.0 | 0.00 | 0.00 | 0.00 | 22 | 1012.4 |
| 20260903170524 | 79 | 360 | 7.0 | 15.0 | 0.00 | 0.00 | 0.00 | 22 | 1012.4 |
| 20260903170106 | 80 | 360 | 5.0 | 15.0 | 0.00 | 0.00 | 0.00 | 22 | 1012.4 |
| 20260903165525 | 80 | 360 | 7.0 | 14.0 | 0.00 | 0.00 | 0.00 | 23 | 1012.4 |
| 20260903165027 | 79 | 360 | 8.0 | 22.0 | 0.00 | 0.00 | 0.00 | 23 | 1012.3 |
| 20260903164550 | 79 | 360 | 7.0 | 22.0 | 0.00 | 0.00 | 0.00 | 24 | 1012.3 |
| 20260903164052 | 79 | 360 | 8.0 | 15.0 | 0.00 | 0.00 | 0.00 | 25 | 1012.3 |
| 20260903163530 | 78 | 360 | 3.0 | 13.0 | 0.00 | 0.00 | 0.00 | 26 | 1012.4 |
| 20260903163031 | 77 | 360 | 0.0 | 0.0 | 0.00 | 0.00 | 0.00 | 29 | 1012.4 |
| 20260903162553 | 78 | 360 | 0.0 | 0.0 | 0.00 | 0.00 | 0.00 | 29 | 1012.3 |
| 20260903162053 | 77 | 360 | 0.0 | 0.0 | 0.00 | 0.00 | 0.00 | 30 | 1012.4 |
| 20260903161614 | 76 | 360 | 0.0 | 0.0 | 0.00 | 0.00 | 0.00 | 30 | 1012.5 |
| 20260903161034 | 76 | 360 | 0.0 | 0.0 | 0.00 | 0.00 | 0.00 | 33 | 1012.4 |
| 20260903160534 | 76 | 360 | 0.0 | 0.0 | 0.00 | 0.00 | 0.00 | 31 | 1012.4 |
| 20260903160056 | 76 | 360 | 0.0 | 0.0 | 0.00 | 0.00 | 0.00 | 32 | 1012.5 |
| 20260903155616 | 76 | 360 | 0.0 | 0.0 | 0.00 | 0.00 | 0.00 | 33 | 1012.5 |
| 20260903155112 | 75 | 360 | 0.0 | 0.0 | 0.00 | 0.00 | 0.00 | 33 | 1012.6 |
| 20260903154032 | 74 | 360 | 0.0 | 0.0 | 0.00 | 0.00 | 0.00 | 34 | 1012.6 |
| 20260903153532 | 74 | 360 | 0.0 | 0.0 | 0.00 | 0.00 | 0.00 | 35 | 1012.6 |
| 20260903153033 | 74 | 360 | 0.0 | 0.0 | 0.00 | 0.00 | 0.00 | 35 | 1012.7 |
| 20260903152535 | 73 | 360 | 0.0 | 0.0 | 0.00 | 0.00 | 0.00 | 35 | 1012.7 |
| 20260903152117 | 73 | 360 | 0.0 | 0.0 | 0.00 | 0.00 | 0.00 | 35 | 1012.7 |
| 20260903151557 | 73 | 360 | 0.0 | 0.0 | 0.00 | 0.00 | 0.00 | 35 | 1012.8 |
| 20260903151119 | 73 | 360 | 0.0 | 0.0 | 0.00 | 0.00 | 0.00 | 35 | 1012.8 |
| 20260903150036 | 71 | 360 | 0.0 | 0.0 | 0.00 | 0.00 | 0.00 | 36 | 1012.9 |
| 20260903145538 | 70 | 360 | 0.0 | 7.0 | 0.00 | 0.00 | 0.00 | 37 | 1012.9 |
| 20260903145038 | 69 | 360 | 0.0 | 11.0 | 0.00 | 0.00 | 0.00 | 38 | 1013.0 |
| 20260903144540 | 68 | 360 | 2.0 | 11.0 | 0.00 | 0.00 | 0.00 | 38 | 1012.9 |
| 20260903144044 | 67 | 360 | 3.0 | 10.0 | 0.00 | 0.00 | 0.00 | 38 | 1012.9 |
| 20260903143525 | 67 | 360 | 0.0 | 0.0 | 0.00 | 0.00 | 0.00 | 42 | 1012.8 |
| 20260903143028 | 66 | 360 | 0.0 | 0.0 | 0.00 | 0.00 | 0.00 | 43 | 1012.9 |
| 20260903142531 | 65 | 360 | 0.0 | 0.0 | 0.00 | 0.00 | 0.00 | 44 | 1012.8 |
| 20260903142054 | 65 | 360 | 0.0 | 0.0 | 0.00 | 0.00 | 0.00 | 44 | 1012.7 |
| 20260903141539 | 64 | 360 | 0.0 | 0.0 | 0.00 | 0.00 | 0.00 | 44 | 1012.6 |
| 20260903141102 | 65 | 360 | 0.0 | 0.0 | 0.00 | 0.00 | 0.00 | 44 | 1012.7 |
| 20260903140543 | 64 | 360 | 0.0 | 0.0 | 0.00 | 0.00 | 0.00 | 45 | 1012.6 |
| 20260903140045 | 63 | 360 | 0.0 | 0.0 | 0.00 | 0.00 | 0.00 | 46 | 1012.6 |
| 20260903135547 | 61 | 360 | 0.0 | 0.0 | 0.00 | 0.00 | 0.00 | 46 | 1012.6 |
| 20260903135049 | 60 | 360 | 0.0 | 0.0 | 0.00 | 0.00 | 0.00 | 47 | 1012.5 |
| 20260903134550 | 59 | 360 | 0.0 | 0.0 | 0.00 | 0.00 | 0.00 | 47 | 1012.5 |
| 20260903134054 | 59 | 360 | 0.0 | 4.0 | 0.00 | 0.00 | 0.00 | 47 | 1012.3 |
| 20260903133534 | 59 | 360 | 0.0 | 6.0 | 0.00 | 0.00 | 0.00 | 47 | 1012.3 |
| 20260903133036 | 59 | 360 | 2.0 | 5.0 | 0.00 | 0.00 | 0.00 | 48 | 1012.3 |
| 20260903132618 | 59 | 360 | 1.0 | 5.0 | 0.00 | 0.00 | 0.00 | 47 | 1012.2 |
| 20260903132039 | 59 | 360 | 0.0 | 4.0 | 0.00 | 0.00 | 0.00 | 46 | 1012.3 |
| 20260903131542 | 60 | 360 | 0.0 | 4.0 | 0.00 | 0.00 | 0.00 | 45 | 1012.2 |
| 20260903131105 | 60 | 360 | 0.0 | 2.0 | 0.00 | 0.00 | 0.00 | 45 | 1012.1 |
| 20260903130527 | 60 | 360 | 1.0 | 2.0 | 0.00 | 0.00 | 0.00 | 45 | 1012.1 |
| 20260903130049 | 60 | 360 | 0.0 | 3.0 | 0.00 | 0.00 | 0.00 | 45 | 1012.1 |
| 20260903125031 | 60 | 360 | 0.0 | 0.0 | 0.00 | 0.00 | 0.00 | 46 | 1012.0 |
| 20260903124554 | 60 | 360 | 0.0 | 3.0 | 0.00 | 0.00 | 0.00 | 46 | 1011.9 |
| 20260903124057 | 61 | 360 | 0.0 | 6.0 | 0.00 | 0.00 | 0.00 | 46 | 1011.9 |
| 20260903123559 | 60 | 360 | 1.0 | 6.0 | 0.00 | 0.00 | 0.00 | 45 | 1011.8 |
| 20260903123057 | 60 | 360 | 0.0 | 9.0 | 0.00 | 0.00 | 0.00 | 46 | 1011.8 |
| 20260903122539 | 60 | 360 | 0.0 | 9.0 | 0.00 | 0.00 | 0.00 | 47 | 1011.6 |
| 20260903122040 | 60 | 360 | 0.0 | 3.0 | 0.00 | 0.00 | 0.00 | 48 | 1011.5 |
| 20260903121603 | 60 | 360 | 0.0 | 3.0 | 0.00 | 0.00 | 0.00 | 47 | 1011.4 |
| 20260903121104 | 60 | 360 | 0.0 | 3.0 | 0.00 | 0.00 | 0.00 | 47 | 1011.4 |
| 20260903120624 | 60 | 360 | 2.0 | 4.0 | 0.00 | 0.00 | 0.00 | 47 | 1011.3 |
| 20260903120104 | 60 | 360 | 2.0 | 4.0 | 0.00 | 0.00 | 0.00 | 47 | 1011.2 |
| 20260903115605 | 60 | 360 | 3.0 | 4.0 | 0.00 | 0.00 | 0.00 | 47 | 1011.3 |
| 20260903115025 | 61 | 360 | 0.0 | 4.0 | 0.00 | 0.00 | 0.00 | 46 | 1011.3 |
| 20260903114047 | 62 | 360 | 0.0 | 4.0 | 0.00 | 0.00 | 0.00 | 45 | 1011.3 |
| 20260903113528 | 62 | 360 | 2.0 | 4.0 | 0.00 | 0.00 | 0.00 | 45 | 1011.2 |
| 20260903113029 | 62 | 360 | 0.0 | 0.0 | 0.00 | 0.00 | 0.00 | 45 | 1011.3 |
| 20260903112530 | 62 | 360 | 0.0 | 5.0 | 0.00 | 0.00 | 0.00 | 45 | 1011.3 |
| 20260903112032 | 63 | 360 | 1.0 | 5.0 | 0.00 | 0.00 | 0.00 | 44 | 1011.3 |
| 20260903111553 | 63 | 360 | 0.0 | 3.0 | 0.00 | 0.00 | 0.00 | 43 | 1011.2 |
| 20260903111115 | 62 | 360 | 0.0 | 3.0 | 0.00 | 0.00 | 0.00 | 44 | 1011.4 |
| 20260903110615 | 62 | 360 | 0.0 | 3.0 | 0.00 | 0.00 | 0.00 | 45 | 1011.5 |
| 20260903110053 | 61 | 360 | 0.0 | 6.0 | 0.00 | 0.00 | 0.00 | 45 | 1011.4 |
| 20260903105534 | 61 | 360 | 1.0 | 7.0 | 0.00 | 0.00 | 0.00 | 45 | 1011.5 |
| 20260903105054 | 61 | 360 | 6.0 | 7.0 | 0.00 | 0.00 | 0.00 | 45 | 1011.5 |
| 20260903104534 | 61 | 360 | 5.0 | 6.0 | 0.00 | 0.00 | 0.00 | 45 | 1011.5 |
| 20260903104057 | 61 | 360 | 5.0 | 6.0 | 0.00 | 0.00 | 0.00 | 44 | 1011.5 |
| 20260903103556 | 62 | 360 | 0.0 | 4.0 | 0.00 | 0.00 | 0.00 | 44 | 1011.5 |
| 20260903103036 | 62 | 360 | 2.0 | 4.0 | 0.00 | 0.00 | 0.00 | 43 | 1011.5 |
| 20260903102558 | 63 | 360 | 2.0 | 4.0 | 0.00 | 0.00 | 0.00 | 43 | 1011.5 |
| 20260903102043 | 63 | 360 | 0.0 | 1.0 | 0.00 | 0.00 | 0.00 | 43 | 1011.5 |
| 20260903101040 | 64 | 360 | 0.0 | 0.0 | 0.00 | 0.00 | 0.00 | 41 | 1011.7 |
| 20260903100621 | 64 | 360 | 0.0 | 0.0 | 0.00 | 0.00 | 0.00 | 42 | 1011.7 |
| 20260903095525 | 65 | 360 | 3.0 | 6.0 | 0.00 | 0.00 | 0.00 | 40 | 1011.8 |
| 20260903095046 | 65 | 360 | 3.0 | 5.0 | 0.00 | 0.00 | 0.00 | 40 | 1011.8 |
| 20260903094527 | 65 | 360 | 3.0 | 7.0 | 0.00 | 0.00 | 0.00 | 40 | 1011.8 |
| 20260903094049 | 66 | 360 | 2.0 | 7.0 | 0.00 | 0.00 | 0.00 | 39 | 1011.8 |
| 20260903093528 | 67 | 360 | 0.0 | 10.0 | 0.00 | 0.00 | 0.00 | 39 | 1011.6 |
| 20260903093029 | 67 | 360 | 0.0 | 10.0 | 0.00 | 0.00 | 0.00 | 39 | 1011.5 |
| 20260903092530 | 67 | 360 | 2.0 | 5.0 | 0.00 | 0.00 | 0.00 | 39 | 1011.5 |
| 20260903091532 | 66 | 360 | 4.0 | 7.0 | 0.00 | 0.00 | 0.00 | 40 | 1011.3 |
| 20260903091034 | 66 | 360 | 1.0 | 6.0 | 0.00 | 0.00 | 0.00 | 41 | 1011.2 |
| 20260903090533 | 66 | 360 | 0.0 | 6.0 | 0.00 | 0.00 | 0.00 | 41 | 1011.2 |
| 20260903090035 | 66 | 360 | 5.0 | 7.0 | 0.00 | 0.00 | 0.00 | 41 | 1011.3 |
| 20260903085557 | 67 | 360 | 5.0 | 7.0 | 0.00 | 0.00 | 0.00 | 40 | 1011.1 |
| 20260903085037 | 67 | 360 | 2.0 | 5.0 | 0.00 | 0.00 | 0.00 | 40 | 1011.1 |
| 20260903084538 | 69 | 360 | 3.0 | 5.0 | 0.00 | 0.00 | 0.00 | 38 | 1011.1 |
| 20260903083538 | 71 | 360 | 1.0 | 8.0 | 0.00 | 0.00 | 0.00 | 38 | 1011.3 |
| 20260903083039 | 71 | 360 | 1.0 | 6.0 | 0.00 | 0.00 | 0.00 | 37 | 1011.4 |
| 20260903082540 | 71 | 360 | 0.0 | 10.0 | 0.00 | 0.00 | 0.00 | 38 | 1011.6 |
| 20260903082103 | 71 | 360 | 1.0 | 10.0 | 0.00 | 0.00 | 0.00 | 37 | 1011.6 |
| 20260903081603 | 71 | 360 | 1.0 | 6.0 | 0.00 | 0.00 | 0.00 | 37 | 1011.6 |
| 20260903081044 | 71 | 360 | 1.0 | 13.0 | 0.00 | 0.00 | 0.00 | 37 | 1011.6 |
| 20260903080604 | 71 | 360 | 1.0 | 13.0 | 0.00 | 0.00 | 0.00 | 37 | 1011.5 |
| 20260903080024 | 71 | 360 | 3.0 | 7.0 | 0.00 | 0.00 | 0.00 | 37 | 1011.4 |
| 20260903075528 | 71 | 360 | 0.0 | 13.0 | 0.00 | 0.00 | 0.00 | 37 | 1011.3 |
| 20260903075029 | 71 | 360 | 6.0 | 13.0 | 0.00 | 0.00 | 0.00 | 38 | 1011.4 |
| 20260903074551 | 71 | 360 | 0.0 | 1.0 | 0.00 | 0.00 | 0.00 | 38 | 1011.4 |
| 20260903074053 | 70 | 360 | 0.0 | 1.0 | 0.00 | 0.00 | 0.00 | 39 | 1011.5 |
| 20260903073552 | 71 | 360 | 0.0 | 1.0 | 0.00 | 0.00 | 0.00 | 38 | 1011.5 |
| 20260903073114 | 71 | 360 | 0.0 | 0.0 | 0.00 | 0.00 | 0.00 | 38 | 1010.6 |
| 20260903072553 | 72 | 360 | 0.0 | 0.0 | 0.00 | 0.00 | 0.00 | 38 | 1010.6 |
| 20260903072110 | 72 | 360 | 0.0 | 1.0 | 0.00 | 0.00 | 0.00 | 37 | 1010.7 |
| 20260903071533 | 72 | 360 | 0.0 | 5.0 | 0.00 | 0.00 | 0.00 | 38 | 1010.7 |
| 20260903071036 | 72 | 360 | 0.0 | 5.0 | 0.00 | 0.00 | 0.00 | 37 | 1010.8 |
| 20260903070557 | 72 | 360 | 0.0 | 6.0 | 0.00 | 0.00 | 0.00 | 37 | 1010.9 |
| 20260903070119 | 72 | 360 | 0.0 | 6.0 | 0.00 | 0.00 | 0.00 | 37 | 1011.0 |
| 20260903065559 | 71 | 360 | 0.0 | 11.0 | 0.00 | 0.00 | 0.00 | 38 | 1011.1 |
| 20260903065100 | 70 | 360 | 1.0 | 11.0 | 0.00 | 0.00 | 0.00 | 39 | 1011.0 |
| 20260903064616 | 69 | 360 | 4.0 | 8.0 | 0.00 | 0.00 | 0.00 | 38 | 1011.1 |
| 20260903064116 | 70 | 360 | 2.0 | 8.0 | 0.00 | 0.00 | 0.00 | 37 | 1011.3 |
| 20260903063534 | 70 | 360 | 2.0 | 6.0 | 0.00 | 0.00 | 0.00 | 37 | 1011.1 |
| 20260903063056 | 70 | 360 | 1.0 | 3.0 | 0.00 | 0.00 | 0.00 | 38 | 1010.9 |
| 20260903062617 | 68 | 360 | 0.0 | 6.0 | 0.00 | 0.00 | 0.00 | 39 | 1010.9 |
| 20260903062057 | 67 | 360 | 1.0 | 6.0 | 0.00 | 0.00 | 0.00 | 39 | 1010.9 |
| 20260903061537 | 66 | 360 | 5.0 | 6.0 | 0.00 | 0.00 | 0.00 | 39 | 1010.8 |
| 20260903061059 | 66 | 360 | 2.0 | 4.0 | 0.00 | 0.00 | 0.00 | 38 | 1010.8 |
| 20260903060543 | 67 | 360 | 0.0 | 3.0 | 0.00 | 0.00 | 0.00 | 39 | 1010.8 |
| 20260903060045 | 67 | 360 | 0.0 | 3.0 | 0.00 | 0.00 | 0.00 | 38 | 1010.7 |
| 20260903055526 | 67 | 360 | 3.0 | 4.0 | 0.00 | 0.00 | 0.00 | 38 | 1010.7 |
| 20260903055028 | 67 | 360 | 0.0 | 4.0 | 0.00 | 0.00 | 0.00 | 37 | 1010.5 |
| 20260903054549 | 68 | 360 | 3.0 | 4.0 | 0.00 | 0.00 | 0.00 | 37 | 1010.6 |
| 20260903054050 | 68 | 360 | 0.0 | 6.0 | 0.00 | 0.00 | 0.00 | 37 | 1010.6 |
| 20260903053550 | 68 | 360 | 4.0 | 6.0 | 0.00 | 0.00 | 0.00 | 36 | 1010.5 |
| 20260903053031 | 69 | 360 | 4.0 | 6.0 | 0.00 | 0.00 | 0.00 | 35 | 1010.5 |
| 20260903052533 | 71 | 360 | 3.0 | 5.0 | 0.00 | 0.00 | 0.00 | 34 | 1010.6 |
| 20260903052034 | 72 | 360 | 0.0 | 0.0 | 0.00 | 0.00 | 0.00 | 35 | 1010.8 |
| 20260903051612 | 73 | 360 | 0.0 | 3.0 | 0.00 | 0.00 | 0.00 | 34 | 1010.8 |
| 20260903050551 | 73 | 360 | 1.0 | 3.0 | 0.00 | 0.00 | 0.00 | 32 | 1010.9 |
| 20260903050032 | 73 | 360 | 0.0 | 1.0 | 0.00 | 0.00 | 0.00 | 31 | 1011.0 |
| 20260903045529 | 73 | 360 | 0.0 | 1.0 | 0.00 | 0.00 | 0.00 | 31 | 1010.9 |
| 20260903045033 | 73 | 360 | 0.0 | 5.0 | 0.00 | 0.00 | 0.00 | 31 | 1011.0 |
| 20260903044617 | 73 | 360 | 0.0 | 7.0 | 0.00 | 0.00 | 0.00 | 31 | 1011.0 |
| 20260903044037 | 73 | 360 | 4.0 | 7.0 | 0.00 | 0.00 | 0.00 | 30 | 1011.0 |
| 20260903043537 | 74 | 360 | 1.0 | 4.0 | 0.00 | 0.00 | 0.00 | 30 | 1011.0 |
| 20260903043037 | 75 | 360 | 1.0 | 5.0 | 0.00 | 0.00 | 0.00 | 29 | 1011.0 |
| 20260903042539 | 76 | 360 | 3.0 | 9.0 | 0.00 | 0.00 | 0.00 | 29 | 1010.9 |
| 20260903042040 | 76 | 360 | 4.0 | 10.0 | 0.00 | 0.00 | 0.00 | 29 | 1010.9 |
| 20260903041541 | 76 | 360 | 5.0 | 12.0 | 0.00 | 0.00 | 0.00 | 29 | 1010.8 |
| 20260903041027 | 76 | 360 | 5.0 | 15.0 | 0.00 | 0.00 | 0.00 | 30 | 1010.8 |
| 20260903040526 | 76 | 360 | 6.0 | 15.0 | 0.00 | 0.00 | 0.00 | 29 | 1010.9 |
| 20260903040027 | 76 | 360 | 6.0 | 13.0 | 0.00 | 0.00 | 0.00 | 30 | 1011.0 |
| 20260903035550 | 74 | 360 | 6.0 | 11.0 | 0.00 | 0.00 | 0.00 | 30 | 1010.9 |
| 20260903035029 | 72 | 360 | 2.0 | 4.0 | 0.00 | 0.00 | 0.00 | 31 | 1010.9 |
| 20260903034031 | 73 | 360 | 0.0 | 1.0 | 0.00 | 0.00 | 0.00 | 32 | 1010.9 |
| 20260903033551 | 74 | 360 | 0.0 | 0.0 | 0.00 | 0.00 | 0.00 | 31 | 1010.7 |
| 20260903033030 | 75 | 360 | 0.0 | 2.0 | 0.00 | 0.00 | 0.00 | 31 | 1010.6 |
| 20260903032533 | 76 | 360 | 0.0 | 2.0 | 0.00 | 0.00 | 0.00 | 30 | 1010.5 |
| 20260903032054 | 76 | 360 | 0.0 | 7.0 | 0.00 | 0.00 | 0.00 | 28 | 1010.4 |
| 20260903031534 | 76 | 360 | 4.0 | 9.0 | 0.00 | 0.00 | 0.00 | 28 | 1010.4 |
| 20260903031037 | 76 | 360 | 2.0 | 9.0 | 0.00 | 0.00 | 0.00 | 27 | 1010.4 |
| 20260903030556 | 76 | 360 | 2.0 | 6.0 | 0.00 | 0.00 | 0.00 | 28 | 1010.3 |
| 20260903030036 | 77 | 360 | 0.0 | 5.0 | 0.00 | 0.00 | 0.00 | 27 | 1010.2 |
| 20260903025538 | 77 | 360 | 0.0 | 6.0 | 0.00 | 0.00 | 0.00 | 27 | 1010.2 |
| 20260903025040 | 78 | 360 | 2.0 | 8.0 | 0.00 | 0.00 | 0.00 | 27 | 1010.1 |
| 20260903024542 | 78 | 360 | 2.0 | 8.0 | 0.00 | 0.00 | 0.00 | 26 | 1010.2 |
| 20260903024124 | 78 | 360 | 3.0 | 9.0 | 0.00 | 0.00 | 0.00 | 26 | 1010.2 |
| 20260903023543 | 79 | 360 | 3.0 | 12.0 | 0.00 | 0.00 | 0.00 | 26 | 1010.1 |
| 20260903023025 | 79 | 360 | 4.0 | 17.0 | 0.00 | 0.00 | 0.00 | 25 | 1010.0 |
| 20260903022530 | 80 | 360 | 11.0 | 17.0 | 0.00 | 0.00 | 0.00 | 25 | 1009.9 |
| 20260903022031 | 80 | 360 | 12.0 | 16.0 | 0.00 | 0.00 | 0.00 | 25 | 1009.8 |
| 20260903021613 | 80 | 360 | 11.0 | 16.0 | 0.00 | 0.00 | 0.00 | 25 | 1009.7 |
| 20260903021109 | 80 | 360 | 9.0 | 15.0 | 0.00 | 0.00 | 0.00 | 25 | 1009.6 |
| 20260903020532 | 80 | 360 | 10.0 | 15.0 | 0.00 | 0.00 | 0.00 | 26 | 1009.6 |
| 20260903020053 | 81 | 360 | 10.0 | 23.0 | 0.00 | 0.00 | 0.00 | 25 | 1009.4 |
| 20260903015553 | 81 | 360 | 12.0 | 26.0 | 0.00 | 0.00 | 0.00 | 25 | 1009.5 |
| 20260903015033 | 82 | 360 | 10.0 | 26.0 | 0.00 | 0.00 | 0.00 | 25 | 1009.4 |
| 20260903014615 | 82 | 360 | 12.0 | 20.0 | 0.00 | 0.00 | 0.00 | 25 | 1009.5 |
| 20260903014056 | 82 | 360 | 12.0 | 18.0 | 0.00 | 0.00 | 0.00 | 25 | 1009.4 |
| 20260903013613 | 82 | 360 | 9.0 | 17.0 | 0.00 | 0.00 | 0.00 | 25 | 1009.5 |
| 20260903013036 | 82 | 360 | 1.0 | 10.0 | 0.00 | 0.00 | 0.00 | 26 | 1009.4 |
| 20260903012538 | 83 | 360 | 1.0 | 11.0 | 0.00 | 0.00 | 0.00 | 26 | 1009.3 |
| 20260903012040 | 83 | 360 | 1.0 | 12.0 | 0.00 | 0.00 | 0.00 | 25 | 1009.3 |
| 20260903011541 | 83 | 360 | 1.0 | 9.0 | 0.00 | 0.00 | 0.00 | 25 | 1009.4 |